Weather History for KSPF - January, 2013

Change the Weather History Date:

Thursday, January 10, 2013

  Actual Average (KEFC) Record (KEFC)
Temperature  
Mean Temperature 42 °F -  
Max Temperature 57 °F 30 °F 63 °F (1990)
Min Temperature 28 °F 2 °F -25 °F (1982)
Degree Days  
Heating Degree Days 22    
Moisture  
Dew Point 16 °F    
Average Humidity 32    
Maximum Humidity 93    
Minimum Humidity 16    
Precipitation  
Precipitation 0.00 in - - ()
Sea Level Pressure  
Sea Level Pressure 29.54 in    
Wind  
Wind Speed 18 mph (SW)    
Max Wind Speed 36 mph    
Max Gust Speed 50 mph    
Visibility 10 miles    
Events Fog    
Averages and records for this station are not official NWS values.
T = Trace of Precipitation, MM = Missing Value Source: NWS Daily Summary

Daily Weather History Graph

Daily Weather History Graph

Search for Another Location

Airport or City:

Trip Planner

Search our weather history database for the weather conditions in past years. The results will help you decide how hot, cold, wet, or windy it might be!

Date:

Astronomy

Jan. 10, 2013 Rise Set
Actual Time 8:30 AM CST 5:35 PM CST
Civil Twilight 7:57 AM CST 6:08 PM CST
Nautical Twilight 7:21 AM CST 6:44 PM CST
Astronomical Twilight 6:46 AM CST 7:19 PM CST
Moon 7:11 AM CST (1/10) 4:46 PM CST (1/10)
Length of Visible Light 10h 11m
Length of Day
9h 05m
Waning Crescent, 2% of the Moon is Illuminated
Jan 10
Waning Crescent
Jan 11
New
Jan 18
First Quarter
Jan 26
Full
Feb 3
Last Quarter

Hourly Weather History & Observations

Time (CST) Temp. Windchill Dew Point Humidity Pressure Visibility Wind Dir Wind Speed Gust Speed Precip Events Conditions
12:15 AM 55.4 °F - 14.0 °F 20% 29.72 in 10.0 mi SW 33.4 mph 48.3 mph N/A   Clear
12:35 AM 55.4 °F - 14.0 °F 20% 29.72 in 10.0 mi SSW 29.9 mph 42.6 mph N/A   Clear
1:55 AM 55.4 °F - 14.0 °F 20% 29.70 in 10.0 mi SSW 26.5 mph 43.7 mph N/A   Clear
2:15 AM 55.4 °F - 14.0 °F 20% 29.69 in 10.0 mi SW 31.1 mph 44.9 mph N/A   Clear
2:35 AM 57.2 °F - 12.2 °F 17% 29.69 in 10.0 mi SW 26.5 mph 36.8 mph N/A   Clear
2:55 AM 55.4 °F - 14.0 °F 20% 29.70 in 10.0 mi SW 11.5 mph 29.9 mph N/A   Clear
3:15 AM 55.4 °F - 14.0 °F 20% 29.73 in 10.0 mi North 5.8 mph - N/A   Clear
3:35 AM 53.6 °F - 15.8 °F 22% 29.71 in 10.0 mi North 13.8 mph - N/A   Clear
3:55 AM 53.6 °F - 15.8 °F 22% 29.70 in 10.0 mi North 11.5 mph - N/A   Clear
4:15 AM 53.6 °F - 14.0 °F 21% 29.70 in 10.0 mi North 5.8 mph - N/A   Clear
4:35 AM 53.6 °F - 12.2 °F 19% 29.69 in 10.0 mi NE 5.8 mph - N/A   Clear
4:55 AM 53.6 °F - 12.2 °F 19% 29.67 in 10.0 mi East 5.8 mph - N/A   Clear
5:15 AM 48.2 °F - 15.8 °F 27% 29.66 in 10.0 mi SE 3.5 mph - N/A   Clear
5:35 AM 46.4 °F 42.9 °F 17.6 °F 32% 29.66 in 10.0 mi SE 6.9 mph - N/A   Clear
5:55 AM 46.4 °F 42.4 °F 15.8 °F 29% 29.65 in 10.0 mi SE 8.1 mph - N/A   Clear
6:15 AM 48.2 °F - 15.8 °F 27% 29.65 in 10.0 mi South 5.8 mph - N/A   Clear
6:35 AM 50.0 °F - 14.0 °F 24% 29.64 in 10.0 mi Calm Calm - N/A   Clear
6:55 AM 50.0 °F - 15.8 °F 26% 29.63 in 10.0 mi SSE 5.8 mph - N/A   Clear
7:15 AM 48.2 °F - 14.0 °F 25% 29.61 in 10.0 mi East 5.8 mph - N/A   Clear
7:35 AM 51.8 °F - 10.4 °F 19% 29.61 in 10.0 mi SW 5.8 mph - N/A   Clear
7:55 AM 50.0 °F - 14.0 °F 24% 29.60 in 10.0 mi ESE 5.8 mph - N/A   Clear
8:15 AM 50.0 °F - 10.4 °F 20% 29.60 in 10.0 mi East 3.5 mph - N/A   Clear
8:35 AM 53.6 °F - 10.4 °F 18% 29.59 in 10.0 mi SW 19.6 mph 26.5 mph N/A   Clear
8:55 AM 55.4 °F - 10.4 °F 17% 29.57 in 10.0 mi SW 20.7 mph 32.2 mph N/A   Clear
9:15 AM 55.4 °F - 10.4 °F 17% 29.56 in 10.0 mi SSW 26.5 mph 41.4 mph N/A   Clear
9:55 AM 57.2 °F - 10.4 °F 16% 29.55 in 10.0 mi SW 27.6 mph 36.8 mph N/A   Clear
10:15 AM 55.4 °F - 10.4 °F 17% 29.54 in 10.0 mi SW 26.5 mph 43.7 mph N/A   Clear
10:35 AM 55.4 °F - 10.4 °F 17% 29.54 in 10.0 mi SW 23.0 mph 36.8 mph N/A   Clear
10:55 AM 55.4 °F - 10.4 °F 17% 29.52 in 10.0 mi SW 33.4 mph 40.3 mph N/A   Clear
11:15 AM 55.4 °F - 10.4 °F 17% 29.51 in 10.0 mi SW 33.4 mph 47.2 mph N/A   Clear
11:35 AM 55.4 °F - 10.4 °F 17% 29.49 in 10.0 mi SW 35.7 mph 44.9 mph N/A   Clear
11:55 AM 55.4 °F - 10.4 °F 17% 29.48 in 10.0 mi SW 34.5 mph 49.5 mph N/A   Clear
12:15 PM 55.4 °F - 12.2 °F 18% 29.48 in 10.0 mi SW 32.2 mph 43.7 mph N/A   Clear
12:35 PM 55.4 °F - 12.2 °F 18% 29.47 in 10.0 mi WSW 26.5 mph 39.1 mph N/A   Clear
12:55 PM 55.4 °F - 14.0 °F 20% 29.46 in 10.0 mi SW 23.0 mph 39.1 mph N/A   Clear
1:15 PM 55.4 °F - 14.0 °F 20% 29.43 in 10.0 mi SW 32.2 mph 48.3 mph N/A   Clear
1:35 PM 53.6 °F - 14.0 °F 21% 29.43 in 10.0 mi SW 27.6 mph 42.6 mph N/A   Clear
1:55 PM 53.6 °F - 14.0 °F 21% 29.42 in 10.0 mi SW 29.9 mph 43.7 mph N/A   Clear
2:15 PM 53.6 °F - 14.0 °F 21% 29.43 in 10.0 mi SW 24.2 mph 44.9 mph N/A   Clear
2:35 PM 53.6 °F - 15.8 °F 22% 29.45 in 10.0 mi SW 24.2 mph 44.9 mph N/A   Clear
2:55 PM 55.4 °F - 15.8 °F 21% 29.45 in 10.0 mi SW 26.5 mph 34.5 mph N/A   Clear
3:15 PM 53.6 °F - 15.8 °F 22% 29.46 in 10.0 mi WSW 17.3 mph 29.9 mph N/A   Clear
3:35 PM 53.6 °F - 15.8 °F 22% 29.46 in 10.0 mi WSW 20.7 mph 28.8 mph N/A   Clear
3:55 PM 51.8 °F - 15.8 °F 24% 29.47 in 10.0 mi SW 18.4 mph 32.2 mph N/A   Clear
4:15 PM 50.0 °F - 15.8 °F 26% 29.48 in 10.0 mi SW 13.8 mph 27.6 mph N/A   Clear
4:35 PM 50.0 °F - 15.8 °F 26% 29.48 in 10.0 mi SW 13.8 mph 21.9 mph N/A   Clear
4:55 PM 50.0 °F - 15.8 °F 26% 29.47 in 10.0 mi SW 17.3 mph 25.3 mph N/A   Clear
5:15 PM 50.0 °F - 15.8 °F 26% 29.47 in 10.0 mi NW 4.6 mph - N/A   Clear
5:35 PM 50.0 °F - 14.0 °F 24% 29.47 in 10.0 mi West 5.8 mph - N/A   Clear
6:15 PM 48.2 °F - 15.8 °F 27% 29.46 in 10.0 mi WSW 12.7 mph 19.6 mph N/A   Clear
6:55 PM 48.2 °F - 15.8 °F 27% 29.46 in 10.0 mi NW 8.1 mph - N/A   Clear
7:15 PM 50.0 °F - 15.8 °F 26% 29.45 in 10.0 mi West 8.1 mph - N/A   Clear
7:35 PM 50.0 °F - 15.8 °F 26% 29.46 in 10.0 mi NW 5.8 mph - N/A   Clear
7:55 PM 41.0 °F 36.4 °F 21.2 °F 45% 29.46 in 10.0 mi East 6.9 mph - N/A   Clear
8:15 PM 37.4 °F 34.9 °F 23.0 °F 56% 29.46 in 10.0 mi NW 3.5 mph - N/A   Clear
8:35 PM 35.6 °F 30.7 °F 23.0 °F 60% 29.46 in 10.0 mi WSW 5.8 mph - N/A   Clear
8:55 PM 32.0 °F 27.5 °F 23.0 °F 69% 29.46 in 10.0 mi West 4.6 mph - N/A   Clear
9:15 PM 32.0 °F - 23.0 °F 69% 29.46 in 10.0 mi Calm Calm - N/A   Clear
9:35 PM 32.0 °F - 23.0 °F 69% 29.46 in 10.0 mi Calm Calm - N/A   Clear
9:55 PM 30.2 °F 25.4 °F 23.0 °F 75% 29.47 in 10.0 mi West 4.6 mph - N/A   Clear
10:15 PM 30.2 °F - 24.8 °F 80% 29.47 in 10.0 mi Calm Calm - N/A   Clear
10:35 PM 32.0 °F 26.4 °F 24.8 °F 75% 29.47 in 10.0 mi West 5.8 mph - N/A   Clear
10:55 PM 28.4 °F 19.7 °F 26.6 °F 93% 29.47 in 10.0 mi WNW 9.2 mph - N/A   Clear
11:15 PM 28.4 °F 20.4 °F 26.6 °F 93% 29.48 in 5.0 mi NNW 8.1 mph - N/A   Scattered Clouds
11:35 PM 28.4 °F 20.4 °F 26.6 °F 93% 29.49 in 0.5 mi NW 8.1 mph - N/A Fog Light Freezing Fog
11:55 PM 28.4 °F 18.5 °F 26.6 °F 93% 29.49 in 0.2 mi NW 11.5 mph - N/A Fog Light Freezing Fog